Location: Puketoi
(40.5833°S, 176.0167°E)
Time: 13:58:40
(UTC+00:00)

Okean 2 Rocket - Pass Details

Date: 08 February 2023
Orbit: 615 x 641 km, 82.5° (Epoch: 23 March)

Event Time Altitude Azimuth Distance (km) Brightness Sun altitude
Rises 14:54:35 0° 182° (S) 2,964 7.3 -25.1°
Reaches altitude 10° 14:56:56 10° 175° (S) 2,051 6.4 -24.9°
Maximum altitude 15:01:18 45° 102° (ESE) 887 4.1 -24.3°
Enters shadow 15:03:31 25° 44° (NE) 1,290 4.6 -24.1°
